GW1104 Weather Reports


time (UTC)temp
C
wind
direction
speed
KPH
gust
KPH
rain 1hr
cm
rain 24hr
cm
rain mn
cm
humidity
%
barometer
mb
20260510120331 10 96 0.0 1.6 0.00 0.58 0.00 96 1013.0
20260510115316 10 96 0.0 3.2 0.00 0.58 0.00 95 1012.8
20260510114321 10 41 0.0 0.0 0.00 0.58 0.00 95 1012.7
20260510113334 10 41 0.0 0.0 0.00 0.58 0.00 95 1012.6
20260510112322 10 41 0.0 0.0 0.00 0.58 0.00 96 1012.5
20260510111327 10 41 0.0 0.0 0.00 0.58 0.00 95 1012.6
20260510110315 10 12 0.0 0.0 0.00 0.58 0.00 95 1012.4
20260510105316 10 12 0.0 0.0 0.00 0.58 0.00 95 1012.2
20260510104331 10 12 1.6 3.2 0.00 0.58 0.00 95 1012.3
20260510103338 10 139 1.6 4.8 0.00 0.58 0.00 95 1012.1
20260510102326 9 130 1.6 4.8 0.00 0.58 0.00 95 1011.6
20260510101332 9 137 3.2 3.2 0.00 0.58 0.00 95 1011.9
20260510100320 9 143 3.2 3.2 0.00 0.58 0.00 95 1011.8
20260510095324 9 134 3.2 4.8 0.00 0.58 0.00 95 1011.8
20260510094331 9 132 1.6 4.8 0.00 0.58 0.00 95 1011.8
20260510093347 9 130 1.6 3.2 0.00 0.58 0.00 95 1011.6
20260510092312 9 124 1.6 3.2 0.00 0.58 0.00 95 1011.6
20260510091317 8 124 3.2 4.8 0.00 0.58 0.00 95 1011.7
20260510090323 8 131 3.2 4.8 0.00 0.58 0.00 95 1011.7
20260510085328 8 120 3.2 6.4 0.00 0.58 0.00 95 1012.0
20260510084333 8 132 3.2 6.4 0.00 0.58 0.00 95 1012.1
20260510083321 9 110 1.6 3.2 0.00 0.58 0.00 95 1012.2
20260510082312 8 327 0.0 1.6 0.00 0.58 0.00 95 1012.3
20260510081344 8 327 0.0 1.6 0.00 0.58 0.00 95 1012.4
20260510080315 8 327 0.0 0.0 0.00 0.58 0.00 95 1012.5
20260510075332 8 327 0.0 3.2 0.00 0.58 0.00 95 1012.5
20260510074324 8 288 0.0 4.8 0.00 0.58 0.00 95 1012.4
20260510073312 8 309 3.2 6.4 0.00 0.58 0.00 95 1012.4
20260510072320 8 297 3.2 9.7 0.00 0.58 0.00 95 1012.5
20260510071334 8 311 8.0 9.7 0.00 0.58 0.00 94 1012.3
20260510070329 8 47 0.0 0.0 0.00 0.58 0.00 95 1011.7
20260510065314 8 47 0.0 0.0 0.00 0.58 0.00 95 1011.8
20260510064328 8 47 0.0 0.0 0.00 0.58 0.00 95 1011.9
20260510063334 8 47 0.0 0.0 0.00 0.58 0.00 95 1012.0
20260510062324 8 47 0.0 0.0 0.00 0.58 0.00 94 1012.2
20260510061339 8 47 0.0 0.0 0.00 0.58 0.00 94 1012.0
20260510060325 8 47 0.0 0.0 0.00 0.58 0.00 94 1012.1
20260510055328 8 138 0.0 0.0 0.00 0.58 0.00 94 1012.2
20260510054340 8 138 0.0 3.2 0.00 0.58 0.00 94 1011.9
20260510053321 8 137 0.0 4.8 0.00 0.58 0.00 94 1011.7
20260510052327 9 121 1.6 4.8 0.00 0.58 0.00 94 1011.6
20260510051331 9 131 1.6 6.4 0.00 0.58 0.00 94 1011.6
20260510050345 9 130 3.2 6.4 0.00 0.58 0.00 94 1011.6
20260510045318 9 137 1.6 6.4 0.00 0.58 0.00 94 1011.8
20260510044324 9 132 3.2 4.8 0.00 0.58 0.00 94 1011.8
20260510043329 9 124 1.6 6.4 0.00 0.58 0.00 94 1011.6
20260510042316 9 147 3.2 11.3 0.00 0.58 0.00 94 1011.7
20260510041325 9 114 4.8 11.3 0.00 0.58 0.00 94 1011.8
20260510040311 9 124 3.2 11.3 0.00 0.58 0.58 94 1011.8
20260510035338 9 137 1.6 9.7 0.00 0.58 0.58 94 1011.8
20260510034326 9 146 3.2 9.7 0.00 0.58 0.58 93 1011.5
20260510033314 9 128 3.2 4.8 0.00 0.58 0.58 93 1011.5
20260510032330 9 137 1.6 4.8 0.00 0.58 0.58 93 1011.4
20260510031317 10 126 1.6 6.4 0.00 0.58 0.58 93 1011.3
20260510030352 10 122 4.8 9.7 0.00 0.58 0.58 93 1011.3
20260510025317 10 125 3.2 4.8 0.00 0.58 0.58 93 1011.4
20260510024326 10 128 1.6 6.4 0.00 0.58 0.58 93 1011.5
20260510023313 10 122 3.2 4.8 0.00 0.58 0.58 93 1011.5
20260510022346 10 130 1.6 6.4 0.00 0.58 0.58 93 1011.6
20260510021332 10 118 4.8 11.3 0.00 0.58 0.58 93 1011.4
20260510020322 10 121 3.2 9.7 0.00 0.58 0.58 93 1011.4
20260510015350 10 148 3.2 9.7 0.00 0.58 0.58 93 1011.3
20260510014338 10 134 3.2 6.4 0.00 0.58 0.58 93 1011.3
20260510013324 10 124 4.8 8.0 0.00 0.58 0.58 93 1011.4
20260510012337 10 126 0.0 4.8 0.00 0.58 0.58 93 1011.4
20260510011332 11 128 1.6 4.8 0.00 0.58 0.58 93 1011.4
20260510010345 11 131 1.6 4.8 0.00 0.58 0.58 93 1011.1
20260510005351 11 137 3.2 6.4 0.00 0.58 0.58 93 1011.0
20260510004316 11 124 1.6 12.9 0.00 0.58 0.58 93 1010.9
20260510003352 11 147 3.2 8.0 0.00 0.58 0.58 93 1010.8
20260510002318 11 168 3.2 9.7 0.00 0.58 0.58 93 1010.8
20260510001324 11 137 1.6 8.0 0.00 0.58 0.58 93 1010.9
20260510000312 11 124 3.2 4.8 0.00 0.58 0.58 92 1010.7
20260509235336 11 130 3.2 9.7 0.00 0.58 0.58 92 1010.6
20260509234322 11 140 4.8 14.5 0.00 0.58 0.58 92 1010.6
20260509233337 11 124 3.2 4.8 0.00 0.58 0.58 92 1010.4
20260509232325 12 172 3.2 9.7 0.00 0.58 0.58 92 1010.3
20260509231312 12 130 3.2 6.4 0.00 0.58 0.58 92 1010.4
20260509230327 12 124 1.6 4.8 0.00 0.58 0.58 92 1010.3
20260509225312 12 132 3.2 9.7 0.00 0.58 0.58 91 1010.3
20260509224326 12 151 1.6 4.8 0.00 0.58 0.58 92 1010.3
20260509223313 12 161 4.8 11.3 0.00 0.58 0.58 92 1010.4
20260509222318 12 132 1.6 4.8 0.00 0.58 0.58 92 1010.6
20260509221325 11 135 4.8 6.4 0.00 0.58 0.58 92 1010.4
20260509220316 11 155 1.6 6.4 0.00 0.58 0.58 93 1010.6
20260509215330 11 201 0.0 3.2 0.00 0.58 0.58 93 1010.6
20260509214323 11 201 0.0 4.8 0.00 0.58 0.58 93 1010.8
20260509213328 11 203 0.0 3.2 0.00 0.58 0.58 93 1010.8
20260509212315 11 212 0.0 3.2 0.03 0.58 0.58 93 1010.8
20260509211328 11 212 0.0 3.2 0.05 0.58 0.58 93 1010.8
20260509210315 11 212 0.0 3.2 0.08 0.58 0.58 93 1010.8
20260509205340 11 211 0.0 3.2 0.10 0.58 0.58 93 1010.8
20260509204346 11 202 0.0 3.2 0.13 0.58 0.58 93 1010.9
20260509203358 11 335 0.0 4.8 0.15 0.58 0.58 93 1010.9
20260509202323 11 302 1.6 3.2 0.13 0.56 0.56 93 1010.9
20260509201355 11 310 3.2 4.8 0.15 0.53 0.53 93 1011.1
20260509200322 11 267 1.6 4.8 0.15 0.51 0.51 93 1011.6
20260509195337 11 251 3.2 11.3 0.15 0.48 0.48 93 1011.7
20260509194323 11 293 3.2 6.4 0.15 0.46 0.46 93 1011.7
20260509193337 11 328 1.6 6.4 0.15 0.43 0.43 93 1011.9
20260509192326 11 254 1.6 8.0 0.18 0.43 0.43 93 1012.0
20260509191339 11 311 3.2 6.4 0.20 0.38 0.38 92 1012.0
20260509190332 11 289 0.0 0.0 0.25 0.38 0.36 92 1012.1
20260509185338 11 289 0.0 4.8 0.25 0.36 0.33 92 1012.1
20260509184326 11 295 1.6 4.8 0.25 0.33 0.30 92 1012.1
20260509183359 11 262 0.0 1.6 0.23 0.30 0.28 92 1012.0
20260509182325 11 261 1.6 3.2 0.20 0.28 0.25 91 1012.3
20260509181330 11 181 3.2 8.0 0.13 0.20 0.18 90 1012.7
20260509180314 11 209 1.6 11.3 0.05 0.13 0.10 89 1012.7
20260509175319 12 165 3.2 9.7 0.03 0.10 0.08 88 1012.5
20260509174327 12 195 6.4 8.0 0.00 0.08 0.05 88 1012.4
20260509173317 12 310 1.6 11.3 0.00 0.08 0.05 88 1012.3
20260509172325 12 270 1.6 11.3 0.00 0.08 0.05 86 1012.3
20260509171330 12 164 3.2 11.3 0.00 0.08 0.05 87 1012.2
20260509170316 12 275 3.2 9.7 0.00 0.08 0.05 87 1012.1
20260509165320 12 246 3.2 6.4 0.00 0.08 0.05 86 1012.2
20260509164326 12 224 1.6 8.0 0.00 0.08 0.05 87 1012.1
20260509163315 12 197 4.8 6.4 0.03 0.08 0.05 88 1012.1
20260509162322 12 182 1.6 4.8 0.03 0.08 0.05 90 1012.0
20260509161327 12 175 3.2 8.0 0.03 0.08 0.05 89 1012.2
20260509160334 12 191 4.8 6.4 0.03 0.08 0.05 89 1012.5
20260509155340 12 190 3.2 4.8 0.03 0.08 0.05 89 1012.5
20260509154325 12 212 1.6 4.8 0.03 0.08 0.05 90 1012.4
20260509153332 12 169 1.6 4.8 0.00 0.05 0.03 89 1012.4
20260509152320 12 158 1.6 11.3 0.00 0.05 0.03 88 1012.7
20260509151335 12 205 3.2 11.3 0.00 0.05 0.03 87 1012.8
20260509150348 12 164 1.6 4.8 0.00 0.05 0.03 86 1012.9
20260509145334 12 197 4.8 8.0 0.00 0.05 0.03 84 1012.8
20260509144320 12 150 3.2 6.4 0.00 0.05 0.03 84 1012.7
20260509143327 12 197 1.6 4.8 0.00 0.05 0.03 85 1012.4
20260509142340 12 141 3.2 4.8 0.00 0.05 0.03 87 1012.3
20260509141345 11 126 1.6 3.2 0.00 0.05 0.03 88 1012.1
20260509140327 11 125 0.0 3.2 0.00 0.05 0.03 88 1012.3
20260509135330 11 121 1.6 6.4 0.00 0.05 0.03 87 1012.3
20260509134315 11 155 1.6 4.8 0.00 0.05 0.03 88 1012.5
20260509133321 10 125 0.0 6.4 0.00 0.05 0.03 88 1012.5
20260509132329 10 130 0.0 4.8 0.00 0.05 0.03 88 1012.4
20260509131316 10 168 1.6 4.8 0.00 0.05 0.03 88 1012.6
20260509130323 10 149 1.6 9.7 0.00 0.05 0.03 88 1012.7
20260509125328 10 147 1.6 4.8 0.00 0.05 0.03 88 1012.8
20260509124315 10 130 3.2 6.4 0.00 0.05 0.03 88 1012.6
20260509123331 10 124 3.2 9.7 0.00 0.05 0.03 89 1012.7
20260509122314 10 123 3.2 11.3 0.03 0.05 0.03 90 1012.9
20260509121328 9 149 3.2 14.5 0.03 0.05 0.03 91 1012.7